[TLELIST] Archives

 

[TLELIST] Current TLEs

October 1st 2024 PDT

HST 1 20580U 90037B 24274.59720062 .00014727 00000-0 65943-3 0 9995 2 20580 28.4700 357.9327 0003277 112.3484 247.7456 15.19779408693336 ISS (ZARYA) 1 25544U 98067A 24275.11342934 .00057968 00000-0 10150-2 0 9991 2 25544 51.6379 150.7192 0007141 48.4365 111.4314 15.50010946474978 CXO 1 25867U 99040B 24276.28510669 .00000996 00000-0 00000-0 0 9992 2 25867 43.5327 145.0351 8778820 302.1951 0.5214 0.37812497 14967 ...Continue Reading

[TLELIST] Current TLEs

September 30th 2024 PDT

HST 1 20580U 90037B 24273.61217697 .00014161 00000-0 63432-3 0 9995 2 20580 28.4700 4.5527 0003289 103.1525 256.9435 15.19749699692922 ISS (ZARYA) 1 25544U 98067A 24274.40627631 .00013723 00000-0 24831-3 0 9995 2 25544 51.6392 154.2186 0007232 45.9401 125.4774 15.49946976474861 CXO 1 25867U 99040B 24276.28510669 .00000996 00000-0 00000-0 0 9992 2 25867 43.5327 145.0351 8778820 302.1951 0.5214 0.37812497 14967 ...Continue Reading

[TLELIST] Current TLEs

September 30th 2024 PDT

HST 1 20580U 90037B 24273.61217697 .00014161 00000-0 63432-3 0 9995 2 20580 28.4700 4.5527 0003289 103.1525 256.9435 15.19749699692922 ISS (ZARYA) 1 25544U 98067A 24274.40627631 .00013723 00000-0 24831-3 0 9995 2 25544 51.6392 154.2186 0007232 45.9401 125.4774 15.49946976474861 CXO 1 25867U 99040B 24276.28510669 .00000996 00000-0 00000-0 0 9992 2 25867 43.5327 145.0351 8778820 302.1951 0.5214 0.37812497 14967 ...Continue Reading

[TLELIST] Current TLEs

September 29th 2024 PDT

HST 1 20580U 90037B 24272.95548354 .00013397 00000-0 59995-3 0 9997 2 20580 28.4699 8.9658 0003303 97.0171 263.0797 15.19732270692823 ISS (ZARYA) 1 25544U 98067A 24273.40365741 -.00074148 00000-0 -13101-2 0 9992 2 25544 51.6395 159.1861 0006820 41.1038 292.2714 15.49830582474709 CXO 1 25867U 99040B 24276.28436472 .00000996 00000-0 00000+0 0 9990 2 25867 43.5327 145.0351 8778814 302.1950 0.4201 0.37813254 26127 ...Continue Reading

[TLELIST] Current TLEs

September 29th 2024 PDT

HST 1 20580U 90037B 24272.95548354 .00013397 00000-0 59995-3 0 9997 2 20580 28.4699 8.9658 0003303 97.0171 263.0797 15.19732270692823 ISS (ZARYA) 1 25544U 98067A 24273.40365741 -.00074148 00000-0 -13101-2 0 9992 2 25544 51.6395 159.1861 0006820 41.1038 292.2714 15.49830582474709 CXO 1 25867U 99040B 24276.28436472 .00000996 00000-0 00000+0 0 9990 2 25867 43.5327 145.0351 8778814 302.1950 0.4201 0.37813254 26127 ...Continue Reading

[TLELIST] Current TLEs

September 28th 2024 PDT

HST 1 20580U 90037B 24271.97042922 .00012265 00000-0 54900-3 0 9992 2 20580 28.4697 15.5854 0003286 87.7898 272.3072 15.19706267692933 ISS (ZARYA) 1 25544U 98067A 24272.20796705 .00058591 00000-0 10319-2 0 9997 2 25544 51.6377 165.1137 0006922 38.3252 99.3437 15.49843852474523 CXO 1 25867U 99040B 24273.63945850 .00000989 00000-0 00000-0 0 9994 2 25867 43.4742 145.2204 8783852 302.0799 0.3736 0.37808832 14950 ...Continue Reading

[TLELIST] Current TLEs

September 27th 2024 PDT

HST 1 20580U 90037B 24270.65699867 .00011726 00000-0 52507-3 0 9994 2 20580 28.4700 24.4116 0003229 74.8398 285.2552 15.19671868692470 ISS (ZARYA) 1 25544U 98067A 24271.24166001 .00047342 00000-0 83840-3 0 9992 2 25544 51.6367 169.9002 0007022 35.5358 107.3006 15.49778903474372 CXO 1 25867U 99040B 24273.63945850 .00000989 00000-0 00000-0 0 9994 2 25867 43.4742 145.2204 8783852 302.0799 0.3736 0.37808832 14950 ...Continue Reading

[TLELIST] Current TLEs

September 26th 2024 PDT

HST 1 20580U 90037B 24269.67190611 .00012120 00000-0 54335-3 0 9997 2 20580 28.4698 31.0308 0003252 66.7300 293.3635 15.19649048692323 ISS (ZARYA) 1 25544U 98067A 24270.27490167 -.00001816 00000-0 -24046-4 0 9999 2 25544 51.6389 174.6848 0006594 36.6563 109.0334 15.49706506474227 CXO 1 25867U 99040B 24270.99516273 .00000980 00000-0 00000-0 0 9994 2 25867 43.4105 145.4198 8787709 301.9463 0.4326 0.37805738 14945 ...Continue Reading

[TLELIST] Current TLEs

September 26th 2024 PDT

HST 1 20580U 90037B 24269.67190611 .00012120 00000-0 54335-3 0 9997 2 20580 28.4698 31.0308 0003252 66.7300 293.3635 15.19649048692323 ISS (ZARYA) 1 25544U 98067A 24270.27490167 -.00001816 00000-0 -24046-4 0 9999 2 25544 51.6389 174.6848 0006594 36.6563 109.0334 15.49706506474227 CXO 1 25867U 99040B 24270.99516273 .00000980 00000-0 00000-0 0 9994 2 25867 43.4105 145.4198 8787709 301.9463 0.4326 0.37805738 14945 ...Continue Reading

[TLELIST] Current TLEs

September 26th 2024 PDT

HST 1 20580U 90037B 24269.67190611 .00012120 00000-0 54335-3 0 9997 2 20580 28.4698 31.0308 0003252 66.7300 293.3635 15.19649048692323 ISS (ZARYA) 1 25544U 98067A 24270.27490167 -.00001816 00000-0 -24046-4 0 9999 2 25544 51.6389 174.6848 0006594 36.6563 109.0334 15.49706506474227 CXO 1 25867U 99040B 24270.99516273 .00000980 00000-0 00000-0 0 9994 2 25867 43.4105 145.4198 8787709 301.9463 0.4326 0.37805738 14945 ...Continue Reading
  • This mailing list is a public mailing list - anyone may join or leave, at any time.
  • This mailing list is announce-only.

International Space Station (ISS) / Hubble Space Telescope (HST) / Chandra X-Ray Observatory Orbital Data via EMAIL

Privacy Policy:

Private list